Regional Weather Roundup
Issued by NWS

Home | Current Version | Previous Version | Graphics & Text | Print | Product List | Glossary Off
Versions: 1 2 3 4 5 6 7 8 9 10 11 12 13 14 15 16 17 18 19 20 21 22 23 24 25 26 27 28 29 30 31 32 33 34 35 36 37 38 39 40 41 42 43 44 45 46 47 48 49 50

000
ASUS43 KMKX 281900
RWRWI

WISCONSIN REGIONAL WEATHER ROUNDUP
NATIONAL WEATHER SERVICE MILWAUKEE/SULLIVAN WI
100 PM CST SUN DEC 28 2014

NOTE: "FAIR" INDICATES FEW OR NO CLOUDS BELOW 12,000 FEET WITH NO
SIGNIFICANT WEATHER AND/OR OBSTRUCTIONS TO VISIBILITY.

WIZ001-002-006>008-014>016-023>028-282000-
NORTHWEST WISCONSIN

CITY           SKY/WX    TMP DP  RH WIND       PRES   REMARKS
SUPERIOR ARPT  SUNNY     15  -1  50 N7        30.21S WCI   5
ASHLAND        SUNNY     17   3  54 NW9       30.17S WCI   6
HAYWARD        MOSUNNY   19   7  59 VRB6      30.13S WCI  11
SIREN          CLOUDY    19  10  66 N8        30.16S WCI   9
CUMBERLAND     MOSUNNY   19  12  73 N6        30.12F WCI  11
RICE LAKE      CLOUDY    21  13  73 NW6       30.15S WCI  13
CHETEK         CLOUDY    20  14  77 NW3       30.14F
LADYSMITH      LGT SNOW  19  15  87 CALM      30.13S
EAU CLAIRE     CLOUDY    17  11  77 NW3       30.15S
MENOMONIE      LGT SNOW  18  12  78 CALM      30.16F
NEW RICHMOND   CLOUDY    20  14  78 CALM      30.16S
OSCEOLA        CLOUDY    21  14  75 N7        30.19S WCI  12
$$

WIZ003>005-009-010-017-018-282000-
NORTH CENTRAL WISCONSIN

CITY           SKY/WX    TMP DP  RH WIND       PRES   REMARKS
MANITOWISH WTR LGT SNOW  15  10  80 NW10      30.05F WCI   3
ARBOR VITAE    FLURRIES  19  13  77 N9G17     30.05S WCI   8
WOODRUFF       FLURRIES  19  13  77 N9G17     30.05S WCI   8
RHINELANDER    CLOUDY    17  10  74 NW12      30.05F WCI   4
EAGLE RIVER    FLURRIES  17   8  66 NW10      30.03S WCI   5
LAND O LAKES   LGT SNOW  19  11  73 NW8       30.04R WCI   8
PHILLIPS       CLOUDY    18  12  77 W3        30.08S
TOMAHAWK       CLOUDY    19  12  75 CALM      30.08F
MEDFORD        LGT SNOW  14  11  89 NW3       30.09S
MERRILL        LGT SNOW  18  15  91 CALM      30.09F
$$

WIZ029-030-035-036-043>047-282000-
CENTRAL WISCONSIN

CITY           SKY/WX    TMP DP  RH WIND       PRES   REMARKS
WAUSAU         CLOUDY    17  13  84 W7        30.09S FOG     WCI   8
MOSINEE        LGT SNOW  18  18 100 W7        30.10F WCI   8
MARSHFIELD     CLOUDY    17  12  80 NW6       30.10F WCI   9
STEVENS POINT  FLURRIES  20  15  83 W6        30.11F WCI  12
WAUPACA        SUNNY     30  19  62 SW5       30.12F WCI  25
WAUTOMA        NOT AVBL
WISC RAPIDS    PTSUNNY   25  16  68 NW7       30.12F WCI  17
CAMP DOUGLAS   NOT AVBL
$$

WIZ011>013-019>022-031-037>040-048>050-282000-
NORTHEAST WISCONSIN

CITY           SKY/WX    TMP DP  RH WIND       PRES   REMARKS
ANTIGO         CLOUDY    17  13  85 W7        30.06F WCI   7
SHAWANO        SUNNY     26  17  69 W5        30.11F WCI  20
OCONTO         SUNNY     25  15  66 NW7       30.10F WCI  17
STURGEON BAY   SUNNY     25  14  63 W13       30.10F WCI  13
GREEN BAY      SUNNY     27  18  69 W10       30.11F WCI  17
MANITOWOC      NOT AVBL
APPLETON       PTSUNNY   27  12  54 W6        30.11F WCI  20
CLINTONVILLE   SUNNY     27  18  69 NW9       30.10F WCI  17
OSHKOSH        SUNNY     27  19  72 W8        30.12F WCI  19
$$

WIZ032>034-041-042-053>061-282000-
SOUTHWEST WISCONSIN

CITY           SKY/WX    TMP DP  RH WIND       PRES   REMARKS
LA CROSSE      SUNNY     26  16  65 CALM      30.15F
SPARTA         SUNNY     26  17  70 W5        30.14F WCI  20
VIROQUA        SUNNY     26  20  79 NW6       30.11F WCI  20
BOSCOBEL       SUNNY     31  19  61 S3        30.15F
PRAIRIE DU CHI SUNNY     29  17  62 CALM      30.16F
PLATTEVILLE    SUNNY     29  20  69 CALM      30.15F
$$

WIZ056-057-062-063-064-067-068-282000-
SOUTH CENTRAL WISCONSIN

CITY           SKY/WX    TMP DP  RH WIND       PRES   REMARKS
REEDSBURG      SUNNY     28  18  66 W6        30.12F WCI  22
BARABOO/DELLS  SUNNY     29  18  63 W5        30.12F WCI  24
LONE ROCK      NOT AVBL
MINERAL POINT  SUNNY     30  21  69 W8        30.12S WCI  23
MADISON        MOSUNNY   30  18  60 NW7       30.12F WCI  23
MIDDLETON      SUNNY     32  18  55 CALM      30.13S
WATERTOWN      SUNNY     29  19  66 W5        30.12F WCI  24
MONROE         SUNNY     32  21  64 SW6       30.12F WCI  26
JANESVILLE     NOT AVBL
$$

WIZ051-052-058>065-066-070>072-282000-
SOUTHEAST WISCONSIN

CITY           SKY/WX    TMP DP  RH WIND       PRES   REMARKS
MILWAUKEE      MOSUNNY   33  17  51 NW8       30.12F WCI  26
WAUKESHA       MOSUNNY   28  19  69 NW10G17   30.13F WCI  19
MILWAUKEE/TIMM NOT AVBL
RACINE         SUNNY     32  18  56 NW12G17   30.14F WCI  23
BURLINGTON     SUNNY     31  19  60 W9        30.13S WCI  23
KENOSHA        SUNNY     33  20  58 NW9       30.13F WCI  25
FOND DU LAC    SUNNY     28  18  66 W7        30.12F WCI  21
SHEBOYGAN      SUNNY     29  18  63 NW8       30.11F WCI  21
WEST BEND      SUNNY     30  18  59 W8        30.11F WCI  23
JUNEAU         SUNNY     26  18  72 W6        30.13F WCI  20
$$

LSZ147-162-282000-
LAKE SUPERIOR

STATION/POSITION TIME  TEMP    WIND        PRES    WAVE
                       AIR SEA DIR/SP/G            HT/PER
                 (UTC) (F)     (DEG/KT/KT) (MB)    (FT/S)
DEVILS ISLAND    1800   12     310/ 13/ 16 1023.3S
PORT WING        1800   14     310/  8/ 13 1022.7S
SAXON HARBOR     1800   18     310/  8/ 17 1021.3R
$$

LMZ867-665-643>646-282000-
LAKE MICHIGAN

STATION/POSITION TIME  TEMP    WIND        PRES    WAVE
                       AIR SEA DIR/SP/G            HT/PER
                 (UTC) (F)     (DEG/KT/KT) (MB)    (FT/S)
CHAMBERS ISLAND  1800   25     260/  5/  8 1019.3F
NORTHPORT PIER   1805   25     290/  7/ 16 1018.6F
SISTER BAY       1713          280/ 13/ 16   N/A
ALGOMA LAKESHORE 1815          320/ 12/ 18   N/A
KEWAUNEE LAKESHO 1800   25     300/ 10/ 14 1018.8R
SHEBOYGAN LAKESH 1800   28 37  300/  8/ 10 1021.1F
PORT WASHINGTON  1800   30     310/  7/ 11 1021.3F
MILWAUKEE LAKESH 1800   31     310/  7/ 10   N/A
KENOSHA   LAKESH 1800   31     270/  8/ 11 1020.7F
$$

TC  - TEMPERATURE IN CELSIUS
VSB - VISIBILITY IN STATUTE MILES
WCI - WIND CHILL INDEX
HX  - HEAT INDEX



USA.gov is the U.S. government's official web portal to all federal, state and local government web resources and services.